contact:dominique.lefevre@mio.osupytheas.fr, maurice.libes@osupytheas.fr, didier.mallarino@osupytheas.fr
Project:EMSO http://www.emso-fr.org/EMSO-France
Depth: 2436.0 m
Title:EMSO Ligure Ouest : Data MII capteur MICROCAT
DateTime_Computer,Latitude,Longitude,Temperature,Conductivity,Pressure,DateTime_Instrument
DateTime_Computer,Latitude,Longitude,degC,S m-1,dbar,DateTime_Instrument
2022-12-23T00:02:26Z,42.805,6.029,13.3010,4.60059,2470.46,2022-12-23T02:08:23Z
2022-12-23T00:05:29Z,42.805,6.029,13.3009,4.60059,2470.483,2022-12-23T02:11:26Z
2022-12-23T00:08:32Z,42.805,6.029,13.3009,4.60061,2470.497,2022-12-23T02:14:29Z
2022-12-23T00:11:35Z,42.805,6.029,13.3011,4.60061,2470.497,2022-12-23T02:17:32Z
2022-12-23T00:14:38Z,42.805,6.029,13.3008,4.60060,2470.46,2022-12-23T02:20:35Z
2022-12-23T00:17:41Z,42.805,6.029,13.3011,4.60061,2470.437,2022-12-23T02:23:38Z
2022-12-23T00:20:44Z,42.805,6.029,13.3014,4.60059,2470.474,2022-12-23T02:26:41Z
2022-12-23T00:23:47Z,42.805,6.029,13.3010,4.60059,2470.474,2022-12-23T02:29:44Z
2022-12-23T00:26:50Z,42.805,6.029,13.3014,4.60062,2470.46,2022-12-23T02:32:47Z
2022-12-23T00:29:54Z,42.805,6.029,13.3009,4.60060,2470.52,2022-12-23T02:35:51Z
2022-12-23T00:32:57Z,42.805,6.029,13.3010,4.60060,2470.483,2022-12-23T02:38:54Z
2022-12-23T00:36:00Z,42.805,6.029,13.3010,4.60061,2470.46,2022-12-23T02:41:57Z
2022-12-23T00:39:03Z,42.805,6.029,13.3012,4.60061,2470.46,2022-12-23T02:45:00Z
2022-12-23T00:42:06Z,42.805,6.029,13.3012,4.60060,2470.52,2022-12-23T02:48:03Z
2022-12-23T00:45:09Z,42.805,6.029,13.3009,4.60061,2470.483,2022-12-23T02:51:06Z
2022-12-23T00:48:12Z,42.805,6.029,13.3013,4.60060,2470.483,2022-12-23T02:54:09Z
2022-12-23T00:51:15Z,42.805,6.029,13.3012,4.60061,2470.52,2022-12-23T02:57:12Z
2022-12-23T00:54:18Z,42.805,6.029,13.3011,4.60062,2470.483,2022-12-23T03:00:15Z
2022-12-23T00:57:21Z,42.805,6.029,13.3012,4.60059,2470.46,2022-12-23T03:03:18Z
2022-12-23T01:00:24Z,42.805,6.029,13.3011,4.60060,2470.483,2022-12-23T03:06:21Z
2022-12-23T01:03:27Z,42.805,6.029,13.3007,4.60059,2470.474,2022-12-23T03:09:25Z
2022-12-23T01:06:31Z,42.805,6.029,13.3009,4.60061,2470.483,2022-12-23T03:12:28Z
2022-12-23T01:09:34Z,42.805,6.029,13.3010,4.60060,2470.52,2022-12-23T03:15:31Z
2022-12-23T01:12:37Z,42.805,6.029,13.3014,4.60059,2470.46,2022-12-23T03:18:34Z
2022-12-23T01:15:40Z,42.805,6.029,13.3009,4.60059,2470.483,2022-12-23T03:21:37Z
2022-12-23T01:18:43Z,42.805,6.029,13.3012,4.60061,2470.474,2022-12-23T03:24:40Z
2022-12-23T01:21:46Z,42.805,6.029,13.3009,4.60059,2470.483,2022-12-23T03:27:43Z
2022-12-23T01:24:49Z,42.805,6.029,13.3012,4.60061,2470.46,2022-12-23T03:30:46Z
2022-12-23T01:27:52Z,42.805,6.029,13.3009,4.60059,2470.483,2022-12-23T03:33:49Z
2022-12-23T01:30:55Z,42.805,6.029,13.3011,4.60059,2470.497,2022-12-23T03:36:52Z
2022-12-23T01:33:58Z,42.805,6.029,13.3009,4.60060,2470.497,2022-12-23T03:39:55Z
2022-12-23T01:37:01Z,42.805,6.029,13.3010,4.60059,2470.497,2022-12-23T03:42:58Z
2022-12-23T01:40:04Z,42.805,6.029,13.3013,4.60061,2470.483,2022-12-23T03:46:02Z
2022-12-23T01:43:08Z,42.805,6.029,13.3009,4.60060,2470.497,2022-12-23T03:49:05Z
2022-12-23T01:46:11Z,42.805,6.029,13.3006,4.60062,2470.483,2022-12-23T03:52:08Z
2022-12-23T01:49:14Z,42.805,6.029,13.3010,4.60061,2470.52,2022-12-23T03:55:11Z
2022-12-23T01:52:17Z,42.805,6.029,13.3009,4.60059,2470.52,2022-12-23T03:58:14Z
2022-12-23T01:55:20Z,42.805,6.029,13.3009,4.60059,2470.53,2022-12-23T04:01:17Z
2022-12-23T01:58:23Z,42.805,6.029,13.3012,4.60059,2470.507,2022-12-23T04:04:20Z
2022-12-23T02:01:26Z,42.805,6.029,13.3011,4.60061,2470.483,2022-12-23T04:07:23Z
2022-12-23T02:04:29Z,42.805,6.029,13.3011,4.60059,2470.493,2022-12-23T04:10:26Z
2022-12-23T02:07:32Z,42.805,6.029,13.3010,4.60061,2470.507,2022-12-23T04:13:29Z
2022-12-23T02:10:35Z,42.805,6.029,13.3010,4.60061,2470.52,2022-12-23T04:16:32Z
2022-12-23T02:13:38Z,42.805,6.029,13.3009,4.60061,2470.507,2022-12-23T04:19:36Z
2022-12-23T02:16:42Z,42.805,6.029,13.3013,4.60060,2470.483,2022-12-23T04:22:39Z
2022-12-23T02:19:45Z,42.805,6.029,13.3009,4.60060,2470.497,2022-12-23T04:25:42Z
2022-12-23T02:22:48Z,42.805,6.029,13.3011,4.60060,2470.53,2022-12-23T04:28:45Z
2022-12-23T02:25:51Z,42.805,6.029,13.3006,4.60060,2470.52,2022-12-23T04:31:48Z
2022-12-23T02:28:54Z,42.805,6.029,13.3011,4.60060,2470.507,2022-12-23T04:34:51Z
2022-12-23T02:31:57Z,42.805,6.029,13.3016,4.60061,2470.507,2022-12-23T04:37:54Z
2022-12-23T02:35:00Z,42.805,6.029,13.3011,4.60060,2470.53,2022-12-23T04:40:57Z
2022-12-23T02:38:03Z,42.805,6.029,13.3015,4.60062,2470.53,2022-12-23T04:44:00Z
2022-12-23T02:41:06Z,42.805,6.029,13.3013,4.60061,2470.544,2022-12-23T04:47:03Z
2022-12-23T02:44:09Z,42.805,6.029,13.3015,4.60061,2470.53,2022-12-23T04:50:06Z
2022-12-23T02:47:12Z,42.805,6.029,13.3006,4.60061,2470.507,2022-12-23T04:53:10Z
2022-12-23T02:50:16Z,42.805,6.029,13.3011,4.60060,2470.53,2022-12-23T04:56:13Z
2022-12-23T02:53:19Z,42.805,6.029,13.3014,4.60060,2470.507,2022-12-23T04:59:16Z
2022-12-23T02:56:22Z,42.805,6.029,13.3015,4.60060,2470.507,2022-12-23T05:02:19Z
2022-12-23T02:59:25Z,42.805,6.029,13.3013,4.60059,2470.53,2022-12-23T05:05:22Z
2022-12-23T03:02:28Z,42.805,6.029,13.3011,4.60060,2470.553,2022-12-23T05:08:25Z
2022-12-23T03:05:31Z,42.805,6.029,13.3009,4.60061,2470.53,2022-12-23T05:11:28Z
2022-12-23T03:08:34Z,42.805,6.029,13.3011,4.60060,2470.544,2022-12-23T05:14:31Z
2022-12-23T03:11:37Z,42.805,6.029,13.3011,4.60060,2470.567,2022-12-23T05:17:34Z
2022-12-23T03:14:40Z,42.805,6.029,13.3013,4.60060,2470.577,2022-12-23T05:20:37Z
2022-12-23T03:17:43Z,42.805,6.029,13.3012,4.60061,2470.577,2022-12-23T05:23:40Z
2022-12-23T03:20:46Z,42.805,6.029,13.3014,4.60062,2470.6,2022-12-23T05:26:44Z
2022-12-23T03:23:49Z,42.805,6.029,13.3007,4.60060,2470.591,2022-12-23T05:29:47Z
2022-12-23T03:26:53Z,42.805,6.029,13.3010,4.60061,2470.591,2022-12-23T05:32:50Z
2022-12-23T03:29:56Z,42.805,6.029,13.3015,4.60061,2470.6,2022-12-23T05:35:53Z
2022-12-23T03:32:59Z,42.805,6.029,13.3010,4.60060,2470.591,2022-12-23T05:38:56Z
2022-12-23T03:36:02Z,42.805,6.029,13.3013,4.60061,2470.614,2022-12-23T05:41:59Z
2022-12-23T03:39:05Z,42.805,6.029,13.3015,4.60061,2470.577,2022-12-23T05:45:02Z
2022-12-23T03:42:08Z,42.805,6.029,13.3009,4.60061,2470.614,2022-12-23T05:48:05Z
2022-12-23T03:45:11Z,42.805,6.029,13.3010,4.60060,2470.6,2022-12-23T05:51:08Z
2022-12-23T03:48:14Z,42.805,6.029,13.3009,4.60061,2470.614,2022-12-23T05:54:11Z
2022-12-23T03:51:17Z,42.805,6.029,13.3012,4.60060,2470.6,2022-12-23T05:57:14Z
2022-12-23T03:54:20Z,42.805,6.029,13.3006,4.60059,2470.6,2022-12-23T06:00:18Z
2022-12-23T03:57:23Z,42.805,6.029,13.3011,4.60060,2470.591,2022-12-23T06:03:21Z
2022-12-23T04:00:27Z,42.805,6.029,13.3014,4.60061,2470.614,2022-12-23T06:06:24Z
2022-12-23T04:03:30Z,42.805,6.029,13.3012,4.60061,2470.6,2022-12-23T06:09:27Z
2022-12-23T04:06:33Z,42.805,6.029,13.3010,4.60061,2470.6,2022-12-23T06:12:30Z
2022-12-23T04:09:36Z,42.805,6.029,13.3011,4.60061,2470.624,2022-12-23T06:15:33Z
2022-12-23T04:12:39Z,42.805,6.029,13.3013,4.60060,2470.646,2022-12-23T06:18:36Z
2022-12-23T04:15:42Z,42.805,6.029,13.3011,4.60061,2470.661,2022-12-23T06:21:39Z
2022-12-23T04:18:45Z,42.805,6.029,13.3014,4.60061,2470.624,2022-12-23T06:24:42Z
2022-12-23T04:21:48Z,42.805,6.029,13.3011,4.60061,2470.646,2022-12-23T06:27:45Z
2022-12-23T04:24:51Z,42.805,6.029,13.3014,4.60060,2470.637,2022-12-23T06:30:48Z
2022-12-23T04:27:54Z,42.805,6.029,13.3013,4.60061,2470.67,2022-12-23T06:33:51Z
2022-12-23T04:30:57Z,42.805,6.029,13.3011,4.60062,2470.661,2022-12-23T06:36:55Z
2022-12-23T04:34:00Z,42.805,6.029,13.3007,4.60061,2470.661,2022-12-23T06:39:58Z
2022-12-23T04:37:04Z,42.805,6.029,13.3014,4.60061,2470.646,2022-12-23T06:43:01Z
2022-12-23T04:40:07Z,42.805,6.029,13.3011,4.60062,2470.67,2022-12-23T06:46:04Z
2022-12-23T04:43:10Z,42.805,6.029,13.3011,4.60060,2470.67,2022-12-23T06:49:07Z
2022-12-23T04:46:13Z,42.805,6.029,13.3011,4.60062,2470.67,2022-12-23T06:52:10Z
2022-12-23T04:49:16Z,42.805,6.029,13.3011,4.60061,2470.693,2022-12-23T06:55:13Z
2022-12-23T04:52:19Z,42.805,6.029,13.3012,4.60062,2470.67,2022-12-23T06:58:16Z
2022-12-23T04:55:22Z,42.805,6.029,13.3011,4.60061,2470.693,2022-12-23T07:01:19Z
2022-12-23T04:58:25Z,42.805,6.029,13.3009,4.60061,2470.684,2022-12-23T07:04:22Z
2022-12-23T05:01:28Z,42.805,6.029,13.3011,4.60062,2470.67,2022-12-23T07:07:25Z
2022-12-23T05:04:31Z,42.805,6.029,13.3009,4.60061,2470.67,2022-12-23T07:10:28Z
2022-12-23T05:07:34Z,42.805,6.029,13.3014,4.60061,2470.693,2022-12-23T07:13:32Z
2022-12-23T05:10:37Z,42.805,6.029,13.3015,4.60062,2470.693,2022-12-23T07:16:35Z
2022-12-23T05:13:41Z,42.805,6.029,13.3009,4.60061,2470.717,2022-12-23T07:19:38Z
2022-12-23T05:16:44Z,42.805,6.029,13.3013,4.60062,2470.707,2022-12-23T07:22:41Z
2022-12-23T05:19:47Z,42.805,6.029,13.3011,4.60061,2470.693,2022-12-23T07:25:44Z
2022-12-23T05:22:50Z,42.805,6.029,13.3011,4.60061,2470.707,2022-12-23T07:28:47Z
2022-12-23T05:25:53Z,42.805,6.029,13.3011,4.60062,2470.693,2022-12-23T07:31:50Z
2022-12-23T05:28:56Z,42.805,6.029,13.3010,4.60064,2470.693,2022-12-23T07:34:53Z
2022-12-23T05:31:59Z,42.805,6.029,13.3011,4.60063,2470.717,2022-12-23T07:37:56Z
2022-12-23T05:35:02Z,42.805,6.029,13.3011,4.60061,2470.693,2022-12-23T07:40:59Z
2022-12-23T05:38:05Z,42.805,6.029,13.3015,4.60062,2470.693,2022-12-23T07:44:02Z
2022-12-23T05:41:08Z,42.805,6.029,13.3009,4.60062,2470.717,2022-12-23T07:47:05Z
2022-12-23T05:44:11Z,42.805,6.029,13.3012,4.60061,2470.717,2022-12-23T07:50:09Z
2022-12-23T05:47:14Z,42.805,6.029,13.3013,4.60062,2470.73,2022-12-23T07:53:12Z
2022-12-23T05:50:17Z,42.805,6.029,13.3012,4.60062,2470.717,2022-12-23T07:56:15Z
2022-12-23T05:53:21Z,42.805,6.029,13.3011,4.60061,2470.73,2022-12-23T07:59:18Z
2022-12-23T05:56:24Z,42.805,6.029,13.3010,4.60062,2470.754,2022-12-23T08:02:21Z
2022-12-23T05:59:27Z,42.805,6.029,13.3013,4.60062,2470.679,2022-12-23T08:05:24Z
2022-12-23T06:02:30Z,42.805,6.029,13.3012,4.60062,2470.74,2022-12-23T08:08:27Z
2022-12-23T06:05:33Z,42.805,6.029,13.3010,4.60062,2470.74,2022-12-23T08:11:30Z
2022-12-23T06:08:36Z,42.805,6.029,13.3014,4.60062,2470.74,2022-12-23T08:14:33Z
2022-12-23T06:11:39Z,42.805,6.029,13.3011,4.60062,2470.787,2022-12-23T08:17:36Z
2022-12-23T06:14:42Z,42.805,6.029,13.3012,4.60062,2470.73,2022-12-23T08:20:39Z
2022-12-23T06:17:45Z,42.805,6.029,13.3010,4.60060,2470.754,2022-12-23T08:23:43Z
2022-12-23T06:20:48Z,42.805,6.029,13.3016,4.60061,2470.74,2022-12-23T08:26:46Z
2022-12-23T06:23:51Z,42.805,6.029,13.3010,4.60061,2470.73,2022-12-23T08:29:49Z
2022-12-23T06:26:55Z,42.805,6.029,13.3009,4.60061,2470.763,2022-12-23T08:32:52Z
2022-12-23T06:29:58Z,42.805,6.029,13.3014,4.60062,2470.777,2022-12-23T08:35:55Z
2022-12-23T06:33:01Z,42.805,6.029,13.3014,4.60061,2470.787,2022-12-23T08:38:58Z
2022-12-23T06:36:04Z,42.805,6.029,13.3011,4.60062,2470.73,2022-12-23T08:42:01Z
2022-12-23T06:39:07Z,42.805,6.029,13.3012,4.60062,2470.74,2022-12-23T08:45:04Z
2022-12-23T06:42:10Z,42.805,6.029,13.3010,4.60062,2470.777,2022-12-23T08:48:07Z
2022-12-23T06:45:13Z,42.805,6.029,13.3011,4.60062,2470.763,2022-12-23T08:51:10Z
2022-12-23T06:48:16Z,42.805,6.029,13.3012,4.60061,2470.763,2022-12-23T08:54:13Z
2022-12-23T06:51:19Z,42.805,6.029,13.3011,4.60062,2470.74,2022-12-23T08:57:16Z
2022-12-23T06:54:22Z,42.805,6.029,13.3012,4.60062,2470.763,2022-12-23T09:00:20Z
2022-12-23T06:57:25Z,42.805,6.029,13.3015,4.60062,2470.763,2022-12-23T09:03:23Z
2022-12-23T07:00:28Z,42.805,6.029,13.3006,4.60062,2470.777,2022-12-23T09:06:26Z
2022-12-23T07:03:32Z,42.805,6.029,13.3011,4.60061,2470.74,2022-12-23T09:09:29Z
2022-12-23T07:06:35Z,42.805,6.029,13.3011,4.60061,2470.74,2022-12-23T09:12:32Z
2022-12-23T07:09:38Z,42.805,6.029,13.3015,4.60062,2470.754,2022-12-23T09:15:35Z
2022-12-23T07:12:41Z,42.805,6.029,13.3011,4.60062,2470.763,2022-12-23T09:18:38Z
2022-12-23T07:15:44Z,42.805,6.029,13.3012,4.60062,2470.74,2022-12-23T09:21:41Z
2022-12-23T07:18:47Z,42.805,6.029,13.3012,4.60063,2470.763,2022-12-23T09:24:44Z
2022-12-23T07:21:50Z,42.805,6.029,13.3016,4.60062,2470.763,2022-12-23T09:27:47Z
2022-12-23T07:24:53Z,42.805,6.029,13.3011,4.60062,2470.703,2022-12-23T09:30:50Z
2022-12-23T07:27:56Z,42.805,6.029,13.3011,4.60062,2470.74,2022-12-23T09:33:53Z
2022-12-23T07:30:59Z,42.805,6.029,13.3010,4.60061,2470.754,2022-12-23T09:36:57Z
2022-12-23T07:34:02Z,42.805,6.029,13.3010,4.60062,2470.763,2022-12-23T09:40:00Z
2022-12-23T07:37:05Z,42.805,6.029,13.3012,4.60062,2470.763,2022-12-23T09:43:03Z
2022-12-23T07:40:09Z,42.805,6.029,13.3013,4.60062,2470.763,2022-12-23T09:46:06Z
2022-12-23T07:43:12Z,42.805,6.029,13.3011,4.60061,2470.763,2022-12-23T09:49:09Z
2022-12-23T07:46:15Z,42.805,6.029,13.3013,4.60062,2470.717,2022-12-23T09:52:12Z
2022-12-23T07:49:18Z,42.805,6.029,13.3011,4.60062,2470.763,2022-12-23T09:55:15Z
2022-12-23T07:52:21Z,42.805,6.029,13.3013,4.60062,2470.74,2022-12-23T09:58:18Z
2022-12-23T07:55:24Z,42.805,6.029,13.3014,4.60062,2470.777,2022-12-23T10:01:21Z
2022-12-23T07:58:27Z,42.805,6.029,13.3011,4.60062,2470.74,2022-12-23T10:04:24Z
2022-12-23T08:01:30Z,42.805,6.029,13.3009,4.60062,2470.763,2022-12-23T10:07:27Z
2022-12-23T08:04:33Z,42.805,6.029,13.3011,4.60061,2470.8,2022-12-23T10:10:31Z
2022-12-23T08:07:36Z,42.805,6.029,13.3011,4.60062,2470.777,2022-12-23T10:13:34Z
2022-12-23T08:10:39Z,42.805,6.029,13.3011,4.60062,2470.74,2022-12-23T10:16:37Z
2022-12-23T08:13:42Z,42.805,6.029,13.3014,4.60062,2470.754,2022-12-23T10:19:40Z
2022-12-23T08:16:46Z,42.805,6.029,13.3015,4.60062,2470.754,2022-12-23T10:22:43Z
2022-12-23T08:19:49Z,42.805,6.029,13.3011,4.60062,2470.763,2022-12-23T10:25:46Z
2022-12-23T08:22:52Z,42.805,6.029,13.3012,4.60060,2470.763,2022-12-23T10:28:49Z
2022-12-23T08:25:55Z,42.805,6.029,13.3008,4.60061,2470.74,2022-12-23T10:31:52Z
2022-12-23T08:28:58Z,42.805,6.029,13.3010,4.60061,2470.73,2022-12-23T10:34:55Z
2022-12-23T08:32:01Z,42.805,6.029,13.3016,4.60061,2470.74,2022-12-23T10:37:58Z
2022-12-23T08:35:04Z,42.805,6.029,13.3009,4.60062,2470.717,2022-12-23T10:41:01Z
2022-12-23T08:38:07Z,42.805,6.029,13.3009,4.60061,2470.73,2022-12-23T10:44:05Z
2022-12-23T08:41:10Z,42.805,6.029,13.3011,4.60062,2470.73,2022-12-23T10:47:08Z
2022-12-23T08:44:13Z,42.805,6.029,13.3014,4.60062,2470.74,2022-12-23T10:50:11Z
2022-12-23T08:47:16Z,42.805,6.029,13.3011,4.60062,2470.74,2022-12-23T10:53:14Z
2022-12-23T08:50:20Z,42.805,6.029,13.3013,4.60062,2470.717,2022-12-23T10:56:17Z
2022-12-23T08:53:23Z,42.805,6.029,13.3011,4.60061,2470.754,2022-12-23T10:59:20Z
2022-12-23T08:56:26Z,42.805,6.029,13.3014,4.60061,2470.74,2022-12-23T11:02:23Z
2022-12-23T08:59:29Z,42.805,6.029,13.3011,4.60061,2470.74,2022-12-23T11:05:26Z
2022-12-23T09:02:32Z,42.805,6.029,13.3013,4.60063,2470.693,2022-12-23T11:08:29Z
2022-12-23T09:05:35Z,42.805,6.029,13.3013,4.60061,2470.754,2022-12-23T11:11:32Z
2022-12-23T09:08:38Z,42.805,6.029,13.3008,4.60061,2470.717,2022-12-23T11:14:35Z
2022-12-23T09:11:41Z,42.805,6.029,13.3013,4.60061,2470.707,2022-12-23T11:17:39Z
2022-12-23T09:14:44Z,42.805,6.029,13.3014,4.60062,2470.717,2022-12-23T11:20:42Z
2022-12-23T09:17:47Z,42.805,6.029,13.3006,4.60062,2470.717,2022-12-23T11:23:45Z
2022-12-23T09:20:50Z,42.805,6.029,13.3009,4.60062,2470.74,2022-12-23T11:26:48Z
2022-12-23T09:23:54Z,42.805,6.029,13.3014,4.60060,2470.754,2022-12-23T11:29:51Z
2022-12-23T09:26:57Z,42.805,6.029,13.3014,4.60061,2470.693,2022-12-23T11:32:54Z
2022-12-23T09:30:00Z,42.805,6.029,13.3012,4.60063,2470.717,2022-12-23T11:35:57Z
2022-12-23T09:33:03Z,42.805,6.029,13.3007,4.60062,2470.73,2022-12-23T11:39:00Z
2022-12-23T09:36:06Z,42.805,6.029,13.3010,4.60062,2470.693,2022-12-23T11:42:03Z
2022-12-23T09:39:09Z,42.805,6.029,13.3009,4.60061,2470.73,2022-12-23T11:45:06Z
2022-12-23T09:42:12Z,42.805,6.029,13.3014,4.60061,2470.73,2022-12-23T11:48:09Z
2022-12-23T09:45:15Z,42.805,6.029,13.3014,4.60062,2470.73,2022-12-23T11:51:12Z
2022-12-23T09:48:18Z,42.805,6.029,13.3009,4.60061,2470.717,2022-12-23T11:54:16Z
2022-12-23T09:51:21Z,42.805,6.029,13.3012,4.60061,2470.693,2022-12-23T11:57:19Z
2022-12-23T09:54:24Z,42.805,6.029,13.3011,4.60062,2470.707,2022-12-23T12:00:22Z
2022-12-23T09:57:27Z,42.805,6.029,13.3009,4.60062,2470.73,2022-12-23T12:03:25Z
2022-12-23T10:00:31Z,42.805,6.029,13.3013,4.60062,2470.693,2022-12-23T12:06:28Z
2022-12-23T10:03:34Z,42.805,6.029,13.3013,4.60062,2470.73,2022-12-23T12:09:31Z
2022-12-23T10:06:37Z,42.805,6.029,13.3011,4.60063,2470.693,2022-12-23T12:12:34Z
2022-12-23T10:09:40Z,42.805,6.029,13.3012,4.60062,2470.707,2022-12-23T12:15:37Z
2022-12-23T10:12:43Z,42.805,6.029,13.3011,4.60062,2470.707,2022-12-23T12:18:40Z
2022-12-23T10:15:46Z,42.805,6.029,13.3009,4.60061,2470.693,2022-12-23T12:21:43Z
2022-12-23T10:18:49Z,42.805,6.029,13.3009,4.60062,2470.67,2022-12-23T12:24:46Z
2022-12-23T10:21:52Z,42.805,6.029,13.3012,4.60062,2470.67,2022-12-23T12:27:50Z
2022-12-23T10:24:55Z,42.805,6.029,13.3012,4.60062,2470.684,2022-12-23T12:30:53Z
2022-12-23T10:27:58Z,42.805,6.029,13.3012,4.60061,2470.684,2022-12-23T12:33:56Z
2022-12-23T10:31:01Z,42.805,6.029,13.3012,4.60062,2470.646,2022-12-23T12:36:59Z
2022-12-23T10:34:05Z,42.805,6.029,13.3009,4.60062,2470.693,2022-12-23T12:40:02Z
2022-12-23T10:37:08Z,42.805,6.029,13.3007,4.60062,2470.684,2022-12-23T12:43:05Z
2022-12-23T10:40:11Z,42.805,6.029,13.3015,4.60062,2470.684,2022-12-23T12:46:08Z
2022-12-23T10:43:14Z,42.805,6.029,13.3012,4.60062,2470.684,2022-12-23T12:49:11Z
2022-12-23T10:46:17Z,42.805,6.029,13.3011,4.60063,2470.646,2022-12-23T12:52:14Z
2022-12-23T10:49:20Z,42.805,6.029,13.3015,4.60061,2470.67,2022-12-23T12:55:17Z
2022-12-23T10:52:23Z,42.805,6.029,13.3011,4.60062,2470.67,2022-12-23T12:58:21Z
2022-12-23T10:55:26Z,42.805,6.029,13.3010,4.60062,2470.684,2022-12-23T13:01:24Z
2022-12-23T10:58:29Z,42.805,6.029,13.3013,4.60062,2470.646,2022-12-23T13:04:27Z
2022-12-23T11:01:32Z,42.805,6.029,13.3011,4.60062,2470.646,2022-12-23T13:07:30Z
2022-12-23T11:04:35Z,42.805,6.029,13.3011,4.60062,2470.661,2022-12-23T13:10:33Z
2022-12-23T11:07:39Z,42.805,6.029,13.3011,4.60062,2470.67,2022-12-23T13:13:36Z
2022-12-23T11:10:42Z,42.805,6.029,13.3012,4.60061,2470.646,2022-12-23T13:16:39Z
2022-12-23T11:13:45Z,42.805,6.029,13.3014,4.60062,2470.646,2022-12-23T13:19:42Z
2022-12-23T11:16:48Z,42.805,6.029,13.3011,4.60062,2470.624,2022-12-23T13:22:45Z
2022-12-23T11:19:51Z,42.805,6.029,13.3012,4.60062,2470.646,2022-12-23T13:25:48Z
2022-12-23T11:22:54Z,42.805,6.029,13.3014,4.60062,2470.624,2022-12-23T13:28:51Z
2022-12-23T11:25:57Z,42.805,6.029,13.3012,4.60062,2470.637,2022-12-23T13:31:54Z
2022-12-23T11:29:00Z,42.805,6.029,13.3012,4.60062,2470.624,2022-12-23T13:34:58Z
2022-12-23T11:32:03Z,42.805,6.029,13.3013,4.60060,2470.624,2022-12-23T13:38:01Z
2022-12-23T11:35:06Z,42.805,6.029,13.3013,4.60063,2470.637,2022-12-23T13:41:04Z
2022-12-23T11:38:09Z,42.805,6.029,13.3013,4.60061,2470.624,2022-12-23T13:44:07Z
2022-12-23T11:41:13Z,42.805,6.029,13.3011,4.60062,2470.6,2022-12-23T13:47:10Z
2022-12-23T11:44:16Z,42.805,6.029,13.3012,4.60062,2470.577,2022-12-23T13:50:13Z
2022-12-23T11:47:19Z,42.805,6.029,13.3013,4.60061,2470.614,2022-12-23T13:53:16Z
2022-12-23T11:50:22Z,42.805,6.029,13.3011,4.60061,2470.624,2022-12-23T13:56:19Z
2022-12-23T11:53:25Z,42.805,6.029,13.3011,4.60061,2470.591,2022-12-23T13:59:22Z
2022-12-23T11:56:28Z,42.805,6.029,13.3011,4.60060,2470.614,2022-12-23T14:02:25Z
2022-12-23T11:59:31Z,42.805,6.029,13.3012,4.60061,2470.577,2022-12-23T14:05:29Z
2022-12-23T12:02:34Z,42.805,6.029,13.3011,4.60062,2470.591,2022-12-23T14:08:32Z
2022-12-23T12:05:37Z,42.805,6.029,13.3013,4.60062,2470.614,2022-12-23T14:11:35Z
2022-12-23T12:08:40Z,42.805,6.029,13.3014,4.60061,2470.624,2022-12-23T14:14:38Z
2022-12-23T12:11:43Z,42.805,6.029,13.3012,4.60060,2470.591,2022-12-23T14:17:41Z
2022-12-23T12:14:46Z,42.805,6.029,13.3009,4.60061,2470.567,2022-12-23T14:20:44Z
2022-12-23T12:17:50Z,42.805,6.029,13.3012,4.60061,2470.6,2022-12-23T14:23:47Z
2022-12-23T12:20:53Z,42.805,6.029,13.3010,4.60062,2470.6,2022-12-23T14:26:50Z
2022-12-23T12:23:56Z,42.805,6.029,13.3014,4.60062,2470.591,2022-12-23T14:29:53Z
2022-12-23T12:26:59Z,42.805,6.029,13.3012,4.60060,2470.614,2022-12-23T14:32:56Z
2022-12-23T12:30:02Z,42.805,6.029,13.3014,4.60060,2470.591,2022-12-23T14:35:59Z
2022-12-23T12:33:05Z,42.805,6.029,13.3010,4.60062,2470.53,2022-12-23T14:39:03Z
2022-12-23T12:36:08Z,42.805,6.029,13.3013,4.60060,2470.577,2022-12-23T14:42:06Z
2022-12-23T12:39:11Z,42.805,6.029,13.3012,4.60061,2470.553,2022-12-23T14:45:09Z
2022-12-23T12:42:14Z,42.805,6.029,13.3011,4.60061,2470.553,2022-12-23T14:48:12Z
2022-12-23T12:45:17Z,42.805,6.029,13.3012,4.60063,2470.544,2022-12-23T14:51:15Z
2022-12-23T12:48:20Z,42.805,6.029,13.3014,4.60062,2470.6,2022-12-23T14:54:18Z
2022-12-23T12:51:24Z,42.805,6.029,13.3014,4.60062,2470.577,2022-12-23T14:57:21Z
2022-12-23T12:54:27Z,42.805,6.029,13.3012,4.60061,2470.567,2022-12-23T15:00:24Z
2022-12-23T12:57:30Z,42.805,6.029,13.3014,4.60062,2470.567,2022-12-23T15:03:27Z
2022-12-23T13:00:33Z,42.805,6.029,13.3010,4.60062,2470.567,2022-12-23T15:06:30Z
2022-12-23T13:03:36Z,42.805,6.029,13.3012,4.60062,2470.591,2022-12-23T15:09:33Z
2022-12-23T13:06:39Z,42.805,6.029,13.3008,4.60061,2470.577,2022-12-23T15:12:37Z
2022-12-23T13:09:42Z,42.805,6.029,13.3012,4.60061,2470.567,2022-12-23T15:15:40Z
2022-12-23T13:12:45Z,42.805,6.029,13.3014,4.60061,2470.553,2022-12-23T15:18:43Z
2022-12-23T13:15:48Z,42.805,6.029,13.3013,4.60063,2470.577,2022-12-23T15:21:46Z
2022-12-23T13:18:51Z,42.805,6.029,13.3015,4.60062,2470.591,2022-12-23T15:24:49Z
2022-12-23T13:21:55Z,42.805,6.029,13.3010,4.60062,2470.53,2022-12-23T15:27:52Z
2022-12-23T13:24:58Z,42.805,6.029,13.3011,4.60062,2470.567,2022-12-23T15:30:55Z
2022-12-23T13:28:01Z,42.805,6.029,13.3009,4.60062,2470.577,2022-12-23T15:33:58Z
2022-12-23T13:31:04Z,42.805,6.029,13.3014,4.60061,2470.553,2022-12-23T15:37:01Z
2022-12-23T13:34:07Z,42.805,6.029,13.3014,4.60061,2470.567,2022-12-23T15:40:04Z
2022-12-23T13:37:10Z,42.805,6.029,13.3014,4.60062,2470.53,2022-12-23T15:43:07Z
2022-12-23T13:40:13Z,42.805,6.029,13.3011,4.60063,2470.553,2022-12-23T15:46:11Z
2022-12-23T13:43:16Z,42.805,6.029,13.3014,4.60064,2470.553,2022-12-23T15:49:14Z
2022-12-23T13:46:19Z,42.805,6.029,13.3012,4.60064,2470.567,2022-12-23T15:52:17Z
2022-12-23T13:49:22Z,42.805,6.029,13.3012,4.60063,2470.553,2022-12-23T15:55:20Z
2022-12-23T13:52:25Z,42.805,6.029,13.3011,4.60064,2470.544,2022-12-23T15:58:23Z
2022-12-23T13:55:28Z,42.805,6.029,13.3011,4.60061,2470.53,2022-12-23T16:01:26Z
2022-12-23T13:58:32Z,42.805,6.029,13.3012,4.60060,2470.553,2022-12-23T16:04:29Z
2022-12-23T14:01:35Z,42.805,6.029,13.3011,4.60061,2470.553,2022-12-23T16:07:32Z
2022-12-23T14:04:38Z,42.805,6.029,13.3013,4.60062,2470.53,2022-12-23T16:10:35Z
2022-12-23T14:07:41Z,42.805,6.029,13.3013,4.60062,2470.553,2022-12-23T16:13:38Z
2022-12-23T14:10:44Z,42.805,6.029,13.3013,4.60062,2470.53,2022-12-23T16:16:41Z
2022-12-23T14:13:47Z,42.805,6.029,13.3016,4.60062,2470.553,2022-12-23T16:19:45Z
2022-12-23T14:16:50Z,42.805,6.029,13.3011,4.60062,2470.553,2022-12-23T16:22:48Z
2022-12-23T14:19:53Z,42.805,6.029,13.3009,4.60062,2470.53,2022-12-23T16:25:51Z
2022-12-23T14:22:56Z,42.805,6.029,13.3014,4.60061,2470.567,2022-12-23T16:28:54Z
2022-12-23T14:25:59Z,42.805,6.029,13.3014,4.60062,2470.53,2022-12-23T16:31:57Z
2022-12-23T14:29:03Z,42.805,6.029,13.3013,4.60061,2470.591,2022-12-23T16:35:00Z
2022-12-23T14:32:06Z,42.805,6.029,13.3013,4.60062,2470.553,2022-12-23T16:38:03Z
2022-12-23T14:35:09Z,42.805,6.029,13.3015,4.60062,2470.567,2022-12-23T16:41:06Z
2022-12-23T14:38:12Z,42.805,6.029,13.3011,4.60062,2470.567,2022-12-23T16:44:09Z
2022-12-23T14:41:15Z,42.805,6.029,13.3015,4.60062,2470.577,2022-12-23T16:47:12Z
2022-12-23T14:44:18Z,42.805,6.029,13.3012,4.60062,2470.553,2022-12-23T16:50:15Z
2022-12-23T14:47:21Z,42.805,6.029,13.3006,4.60062,2470.53,2022-12-23T16:53:19Z
2022-12-23T14:50:24Z,42.805,6.029,13.3012,4.60062,2470.553,2022-12-23T16:56:22Z
2022-12-23T14:53:27Z,42.805,6.029,13.3011,4.60062,2470.544,2022-12-23T16:59:25Z
2022-12-23T14:56:30Z,42.805,6.029,13.3009,4.60061,2470.591,2022-12-23T17:02:28Z
2022-12-23T14:59:33Z,42.805,6.029,13.3013,4.60061,2470.567,2022-12-23T17:05:31Z
2022-12-23T15:02:36Z,42.805,6.029,13.3012,4.60061,2470.567,2022-12-23T17:08:34Z